Location: Ethel Rock
(53.4667°N, 4.5667°W)
Time: 01:24:45
(UTC+00:00)

GP-B - Pass Details

Date: 24 October 2020
Orbit: 631 x 635 km, 89.8° (Epoch: 26 November)

Event Time Altitude Azimuth Distance (km) Brightness Sun altitude
Exits shadow 05:02:31 29° 222° (SW) 1,167 4.1 -18.4°
Maximum altitude 05:04:18 44° 275° (W) 880 3.3 -18.2°
Drops below altitude 10° 05:08:36 10° 348° (NNW) 2,034 5.6 -17.5°
Sets 05:10:55 0° 355° (N) 2,947 6.5 -17.2°
